Location: Plymouth
(43.7570°N, 71.6890°W)
Time: 19:52:02
(UTC-04:00)

Amateur Radio Satellites - All Passes

Search period start: 24 October 2014 19:22
Search period end: 25 October 2014 19:22
Location: Plymouth, 43.7570°N, 71.6890°W

Satellite Date Start Highest point End Downlink Frequencies (MHz)
Time Altitude Azimuth
ISS 24 Oct 19:40:33 19:43:42 39° 220° (SW) 19:46:50 145.800 FM
SO-67 24 Oct 20:03:18 20:05:28 16° 268° (W) 20:07:38 435.3500 MHz FM
UKube-1 24 Oct 20:11:58 20:13:57 13° 60° (ENE) 20:15:56 145.840 MHz, 145.915 MHz
HO-68 24 Oct 20:14:16 20:21:11 55° 66° (ENE) 20:28:09 435.675 MHz FM
KITSAT 1 24 Oct 20:33:15 20:41:07 51° 49° (NE) 20:48:55 435.175 FM
STRAND 1 24 Oct 20:35:50 20:40:33 37° 292° (WNW) 20:45:15 ?
FUNcube-1 24 Oct 20:50:53 20:53:02 13° 61° (ENE) 20:55:10 145.950 - 145.970 MHz USB
Oscar 11 24 Oct 20:51:42 20:55:21 27° 68° (ENE) 20:59:01 145.825 FM, Beacon 2401.500 USB
SO-50 24 Oct 20:59:22 21:03:54 39° 47° (NE) 21:08:29 436.795 FM
AO-40 24 Oct 21:32:34 23:17:23 23° 221° (SW) 02:28:51 Beacon 2401.320
ZACube-1 24 Oct 21:39:50 21:44:06 39° 70° (ENE) 21:48:18 437.345 MHz
RS-15 24 Oct 21:40:17 21:50:26 45° 110° (ESE) 22:00:30 29.354 - 29.394 USB, Beacon 29.352 USB
UKube-1 24 Oct 21:45:13 21:49:34 71° 257° (WSW) 21:53:56 145.840 MHz, 145.915 MHz
HO-68 24 Oct 22:03:00 22:09:11 31° 265° (W) 22:15:25 435.675 MHz FM
UOSAT-12 24 Oct 22:24:06 22:28:13 28° 43° (NE) 22:32:16 437.025 FM, 437.400 FM
FUNcube-1 24 Oct 22:24:15 22:28:50 75° 258° (WSW) 22:33:22 145.950 - 145.970 MHz USB
Oscar 11 24 Oct 22:27:41 22:31:28 29° 264° (W) 22:35:15 145.825 FM, Beacon 2401.500 USB
KITSAT 1 24 Oct 22:28:57 22:36:23 42° 250° (WSW) 22:43:47 435.175 FM
SO-50 24 Oct 22:40:07 22:44:23 31° 245° (WSW) 22:48:40 436.795 FM
ZACube-1 24 Oct 23:17:01 23:20:36 22° 267° (W) 23:24:09 437.345 MHz
MaSat-1 24 Oct 23:18:08 23:21:43 29° 111° (ESE) 23:25:02 437.345 MHz
RS-15 24 Oct 23:51:43 00:02:29 59° 314° (NW) 00:13:19 29.354 - 29.394 USB, Beacon 29.352 USB
UOSAT-12 25 Oct 00:04:02 00:08:32 44° 242° (WSW) 00:12:56 437.025 FM, 437.400 FM
MaSat-1 25 Oct 00:53:57 00:57:20 25° 304° (NW) 01:00:27 437.345 MHz
Oscar 19 25 Oct 01:15:50 01:19:11 17° 91° (E) 01:22:31 437.125 CW, 437.150 USB
AO-27 25 Oct 01:35:54 01:36:42 10° 87° (E) 01:37:31 436.795 MHz FM
JAS-1B 25 Oct 01:51:28 01:57:42 39° 98° (E) 02:04:59 435.800 - 435.900 CW/SSB
AO-Echo 25 Oct 01:55:40 01:59:53 23° 93° (E) 02:04:04 ?
Oscar 16 25 Oct 02:00:29 02:05:24 46° 99° (E) 02:10:18 437.025 USB, Beacon 2401.1428
RS-15 25 Oct 02:08:58 02:17:49 27° 345° (NNW) 02:26:48 29.354 - 29.394 USB, Beacon 29.352 USB
Uribyol 2 25 Oct 02:20:26 02:25:01 30° 96° (E) 02:29:32 436.500 FM
ITAMSAT 1 25 Oct 02:26:25 02:31:06 32° 96° (E) 02:35:44 435.822 SSB
PCSat 25 Oct 02:27:37 02:28:59 11° 101° (ESE) 02:30:20 145.825 MHz
Gurwin Techsat 1B 25 Oct 02:46:51 02:51:21 27° 94° (E) 02:55:50 435.225 FM
Oscar 19 25 Oct 02:53:54 02:58:56 60° 288° (WNW) 03:03:57 437.125 CW, 437.150 USB
TMSAT-1 25 Oct 02:58:06 03:02:30 26° 94° (E) 03:06:51 436.925 FM
AO-27 25 Oct 03:11:43 03:17:00 84° 104° (ESE) 03:22:13 436.795 MHz FM
AO-7 25 Oct 03:26:58 03:31:19 15° 87° (E) 03:35:39 29.400 - 29.500 MHz
AO-Echo 25 Oct 03:33:45 03:38:51 49° 290° (WNW) 03:43:57 ?
Oscar 16 25 Oct 03:40:25 03:44:29 24° 296° (WNW) 03:48:32 437.025 USB, Beacon 2401.1428
JAS-1B 25 Oct 03:42:15 03:48:20 43° 293° (WNW) 03:55:29 435.800 - 435.900 CW/SSB
Sapphire 25 Oct 03:43:49 03:48:59 49° 114° (ESE) 03:54:12 437.095 MHz 1200 baud AX-25 AFSK
Uribyol 2 25 Oct 03:59:46 04:04:31 36° 293° (WNW) 04:09:13 436.500 FM
ITAMSAT 1 25 Oct 04:05:53 04:10:34 34° 294° (WNW) 04:15:14 435.822 SSB
PCSat 25 Oct 04:06:04 04:11:28 80° 119° (ESE) 04:16:55 145.825 MHz
RS-15 25 Oct 04:25:41 04:34:55 29° 20° (NNE) 04:44:22 29.354 - 29.394 USB, Beacon 29.352 USB
Gurwin Techsat 1B 25 Oct 04:26:28 04:31:26 41° 292° (WNW) 04:36:23 435.225 FM
OPAL 25 Oct 04:29:08 04:34:02 47° 68° (ENE) 04:38:55 ?
TMSAT-1 25 Oct 04:37:34 04:42:34 43° 291° (WNW) 04:47:33 436.925 FM
AO-27 25 Oct 04:52:59 04:55:48 15° 302° (WNW) 04:58:37 436.795 MHz FM
JAS-2 25 Oct 05:09:42 05:16:06 27° 90° (E) 05:22:27 435.800 - 435.900 CW/SSB, 435.910 FM
AO-7 25 Oct 05:17:04 05:25:26 76° 107° (ESE) 05:33:46 29.400 - 29.500 MHz
Uosat F 25 Oct 05:18:40 05:23:44 75° 103° (ESE) 05:28:46 435.120 FM
Sapphire 25 Oct 05:27:56 05:32:38 29° 313° (NW) 05:37:22 437.095 MHz 1200 baud AX-25 AFSK
PCSat 25 Oct 05:51:33 05:55:32 20° 319° (NW) 05:59:33 145.825 MHz
OPAL 25 Oct 06:09:05 06:13:07 23° 264° (W) 06:17:09 ?
STRAND 1 25 Oct 06:13:54 06:18:48 47° 70° (ENE) 06:23:44 ?
Hamsat 25 Oct 06:21:11 06:25:17 49° 99° (E) 06:29:22 145.90 MHz
RS-15 25 Oct 06:38:44 06:49:50 67° 50° (NE) 07:01:23 29.354 - 29.394 USB, Beacon 29.352 USB
JAS-2 25 Oct 06:53:53 07:01:36 70° 288° (WNW) 07:09:21 435.800 - 435.900 CW/SSB, 435.910 FM
Uosat F 25 Oct 06:58:59 07:01:54 16° 301° (WNW) 07:04:50 435.120 FM
AO-7 25 Oct 07:10:47 07:17:29 28° 307° (NW) 07:24:11 29.400 - 29.500 MHz
Saudisat 1A 25 Oct 07:13:56 07:17:58 37° 117° (ESE) 07:22:01 436.775 MHz
SO-67 25 Oct 07:23:57 07:27:02 30° 96° (E) 07:30:05 435.3500 MHz FM
STRAND 1 25 Oct 07:54:15 07:58:13 22° 267° (W) 08:02:14 ?
Hamsat 25 Oct 07:58:15 08:00:51 16° 296° (WNW) 08:03:27 145.90 MHz
JAS-2 25 Oct 08:40:45 08:45:20 17° 307° (NW) 08:49:59 435.800 - 435.900 CW/SSB, 435.910 FM
RS-15 25 Oct 08:51:41 09:01:37 39° 252° (WSW) 09:11:57 29.354 - 29.394 USB, Beacon 29.352 USB
Saudisat 1A 25 Oct 08:53:45 08:57:35 29° 315° (NW) 09:01:28 436.775 MHz
SO-67 25 Oct 08:57:31 08:59:47 17° 293° (WNW) 09:02:03 435.3500 MHz FM
MaSat-1 25 Oct 09:02:33 09:05:12 66° 61° (ENE) 09:07:37 437.345 MHz
HO-68 25 Oct 09:27:52 09:34:51 50° 100° (E) 09:41:45 435.675 MHz FM
UKube-1 25 Oct 09:33:05 09:36:03 18° 93° (E) 09:38:59 145.840 MHz, 145.915 MHz
FUNcube-1 25 Oct 10:13:10 10:16:10 19° 92° (E) 10:19:07 145.950 - 145.970 MHz USB
Oscar 11 25 Oct 10:13:20 10:17:28 44° 99° (E) 10:21:35 145.825 FM, Beacon 2401.500 USB
Sapphire 25 Oct 10:48:37 10:50:57 13° 32° (NNE) 10:53:16 437.095 MHz 1200 baud AX-25 AFSK
ZACube-1 25 Oct 11:03:53 11:08:09 67° 101° (ESE) 11:12:18 437.345 MHz
KITSAT 1 25 Oct 11:04:29 11:10:51 27° 105° (ESE) 11:17:14 435.175 FM
UKube-1 25 Oct 11:08:17 11:12:28 45° 289° (WNW) 11:16:37 145.840 MHz, 145.915 MHz
PCSat 25 Oct 11:10:23 11:13:59 18° 38° (NE) 11:17:34 145.825 MHz
HO-68 25 Oct 11:15:56 11:22:20 36° 299° (WNW) 11:28:42 435.675 MHz FM
Oscar 16 25 Oct 11:43:49 11:45:19 11° 56° (NE) 11:46:49 437.025 USB, Beacon 2401.1428
FUNcube-1 25 Oct 11:48:45 11:52:45 39° 289° (WNW) 11:56:38 145.950 - 145.970 MHz USB
Oscar 11 25 Oct 11:50:21 11:53:20 19° 296° (WNW) 11:56:18 145.825 FM, Beacon 2401.500 USB
ISS 25 Oct 12:23:19 12:26:19 32° 139° (SE) 12:29:20 145.800 FM
Sapphire 25 Oct 12:30:20 12:35:40 53° 54° (NE) 12:40:58 437.095 MHz 1200 baud AX-25 AFSK
Oscar 19 25 Oct 12:33:41 12:38:06 30° 66° (ENE) 12:42:31 437.125 CW, 437.150 USB
JAS-1B 25 Oct 12:40:20 12:45:24 32° 65° (ENE) 12:50:20 435.800 - 435.900 CW/SSB
ZACube-1 25 Oct 12:42:08 12:43:58 13° 299° (WNW) 12:45:47 437.345 MHz
Oscar 10/S400 25 Oct 12:48:04 13:04:38 28° 150° (SSE) 13:21:33 145.825 - 145.975 CW/USB, Beacon 145.810 USB
PCSat 25 Oct 12:52:47 12:58:15 83° 59° (ENE) 13:03:40 145.825 MHz
AO-27 25 Oct 12:53:37 12:57:24 21° 61° (ENE) 13:01:12 436.795 MHz FM
SO-50 25 Oct 12:55:34 13:00:00 65° 121° (ESE) 13:04:36 436.795 FM
KITSAT 1 25 Oct 12:57:26 13:05:31 74° 305° (NW) 13:13:38 435.175 FM
AO-Echo 25 Oct 13:09:53 13:14:14 32° 66° (ENE) 13:18:43 ?
Oscar 16 25 Oct 13:18:38 13:23:47 76° 74° (ENE) 13:28:57 437.025 USB, Beacon 2401.1428
Uribyol 2 25 Oct 13:39:24 13:44:27 52° 70° (ENE) 13:49:32 436.500 FM
ITAMSAT 1 25 Oct 13:45:34 13:50:38 56° 71° (ENE) 13:55:45 435.822 SSB
ISS 25 Oct 13:59:46 14:02:57 41° 336° (NNW) 14:06:09 145.800 FM
Saudisat 1A 25 Oct 14:02:10 14:02:38 10° 28° (NNE) 14:03:07 436.775 MHz
Gurwin Techsat 1B 25 Oct 14:09:04 14:14:09 49° 70° (ENE) 14:19:16 435.225 FM
Oscar 19 25 Oct 14:12:35 14:17:19 36° 263° (W) 14:22:04 437.125 CW, 437.150 USB
Sapphire 25 Oct 14:14:27 14:18:44 24° 252° (WSW) 14:23:00 437.095 MHz 1200 baud AX-25 AFSK
UOSAT-12 25 Oct 14:16:06 14:20:26 41° 117° (ESE) 14:24:51 437.025 FM, 437.400 FM
TMSAT-1 25 Oct 14:19:58 14:24:59 45° 69° (ENE) 14:30:02 436.925 FM
AO-7 25 Oct 14:26:57 14:33:34 28° 53° (NE) 14:40:12 29.400 - 29.500 MHz
JAS-1B 25 Oct 14:30:40 14:36:05 36° 263° (W) 14:41:17 435.800 - 435.900 CW/SSB
AO-27 25 Oct 14:31:22 14:36:29 57° 259° (W) 14:41:40 436.795 MHz FM
SO-50 25 Oct 14:37:32 14:41:01 21° 321° (NW) 14:44:34 436.795 FM
PCSat 25 Oct 14:38:07 14:40:55 14° 257° (WSW) 14:43:41 145.825 MHz
AO-Echo 25 Oct 14:48:37 14:52:58 32° 265° (W) 14:57:28 ?
KITSAT 1 25 Oct 14:56:06 15:02:23 24° 329° (NNW) 15:08:43 435.175 FM
Uosat F 25 Oct 14:56:56 15:00:02 17° 60° (ENE) 15:03:07 435.120 FM
Oscar 16 25 Oct 15:01:08 15:03:43 14° 271° (W) 15:06:17 437.025 USB, Beacon 2401.1428
Uribyol 2 25 Oct 15:20:21 15:24:13 21° 268° (W) 15:28:08 436.500 FM
ITAMSAT 1 25 Oct 15:26:46 15:30:29 20° 268° (W) 15:34:13 435.822 SSB
JAS-2 25 Oct 15:27:01 15:29:33 13° 48° (NE) 15:32:12 435.800 - 435.900 CW/SSB, 435.910 FM
ISS 25 Oct 15:37:38 15:40:15 21° 356° (N) 15:42:52 145.800 FM
Saudisat 1A 25 Oct 15:39:04 15:43:20 45° 50° (NE) 15:47:35 436.775 MHz
Gurwin Techsat 1B 25 Oct 15:50:13 15:54:22 23° 267° (W) 15:58:32 435.225 FM
UOSAT-12 25 Oct 15:56:35 16:00:42 30° 316° (NW) 16:04:52 437.025 FM, 437.400 FM
TMSAT-1 25 Oct 16:00:49 16:05:05 25° 267° (W) 16:09:24 436.925 FM
AO-7 25 Oct 16:17:20 16:25:36 77° 253° (WSW) 16:33:56 29.400 - 29.500 MHz
Uosat F 25 Oct 16:33:14 16:38:14 70° 257° (WSW) 16:43:18 435.120 FM
KITSAT 1 25 Oct 16:57:21 17:01:22 14° 359° (N) 17:05:23 435.175 FM
JAS-2 25 Oct 17:07:08 17:13:03 63° 70° (ENE) 17:19:49 435.800 - 435.900 CW/SSB, 435.910 FM
ISS 25 Oct 17:14:42 17:17:40 28° 17° (NNE) 17:20:38 145.800 FM
Hamsat 25 Oct 17:15:41 17:19:38 41° 71° (ENE) 17:23:35 145.90 MHz
Saudisat 1A 25 Oct 17:19:13 17:22:37 22° 247° (WSW) 17:26:01 436.775 MHz
SO-67 25 Oct 17:59:05 18:00:50 13° 66° (ENE) 18:02:34 435.3500 MHz FM
AO-7 25 Oct 18:15:21 18:19:42 15° 273° (W) 18:24:05 29.400 - 29.500 MHz
OPAL 25 Oct 18:16:14 18:21:14 82° 106° (ESE) 18:26:10 ?
STRAND 1 25 Oct 18:24:43 18:27:26 14° 89° (E) 18:30:08 ?
ISS 25 Oct 18:51:16 18:54:35 68° 215° (SW) 18:57:54 145.800 FM
Hamsat 25 Oct 18:52:54 18:55:46 18° 268° (W) 18:58:38 145.90 MHz
JAS-2 25 Oct 18:54:10 18:58:47 22° 272° (W) 19:03:51 435.800 - 435.900 CW/SSB, 435.910 FM
KITSAT 1 25 Oct 18:54:13 19:00:24 23° 30° (NNE) 19:06:33 435.175 FM
